�������l�o���
Date,Time,MP-1(��Sv/h),MP-2(��Sv/h),MP-3(��Sv/h),MP-4(��Sv/h),MP-5(��Sv/h),MP-6(��Sv/h),MP-7(��Sv/h),MP-8(��Sv/h),����,����(m/s),���J
2020/10/08,00:00,0.662,0.942,0.599,1.170,0.832,0.382,0.666,0.630,�쐼,1.9,�L
2020/10/08,00:10,0.662,0.943,0.598,1.169,0.832,0.382,0.666,0.630,�쐼,1.7,�L
2020/10/08,00:20,0.661,0.944,0.599,1.168,0.831,0.382,0.666,0.630,��쐼,1.2,�L
2020/10/08,00:30,0.662,0.941,0.600,1.169,0.832,0.380,0.667,0.630,��,1.5,�L
2020/10/08,00:40,0.661,0.941,0.598,1.171,0.831,0.382,0.665,0.630,��쓌,2.6,�L
2020/10/08,00:50,0.662,0.941,0.601,1.167,0.833,0.380,0.667,0.631,��,3.0,�L
2020/10/08,01:00,0.661,0.942,0.598,1.169,0.831,0.382,0.666,0.631,�쐼,2.9,�L
2020/10/08,01:10,0.660,0.941,0.599,1.170,0.833,0.381,0.665,0.629,���쐼,2.3,�L
2020/10/08,01:20,0.661,0.940,0.597,1.169,0.833,0.381,0.668,0.631,�쐼,2.0,�L
2020/10/08,01:30,0.660,0.941,0.598,1.167,0.832,0.380,0.667,0.631,��쐼,2.0,�L
2020/10/08,01:40,0.662,0.940,0.599,1.170,0.832,0.383,0.668,0.631,�쐼,2.9,�L
2020/10/08,01:50,0.662,0.940,0.596,1.169,0.832,0.381,0.668,0.631,���쐼,2.9,�L
2020/10/08,02:00,0.661,0.941,0.599,1.168,0.833,0.381,0.666,0.630,�쐼,2.5,�L
2020/10/08,02:10,0.662,0.940,0.599,1.169,0.831,0.380,0.667,0.631,��쐼,2.6,�L
2020/10/08,02:20,0.660,0.941,0.596,1.165,0.832,0.380,0.668,0.630,��쐼,3.1,�L
2020/10/08,02:30,0.661,0.937,0.597,1.167,0.832,0.382,0.668,0.630,��쐼,2.6,�L
2020/10/08,02:40,0.661,0.939,0.596,1.167,0.830,0.380,0.666,0.630,��쐼,3.3,�L
2020/10/08,02:50,0.658,0.936,0.596,1.166,0.828,0.381,0.666,0.630,��쐼,3.4,�L
2020/10/08,03:00,0.659,0.936,0.598,1.165,0.827,0.380,0.665,0.628,�쐼,3.9,�L
2020/10/08,03:10,0.658,0.934,0.595,1.164,0.826,0.380,0.663,0.628,��쐼,3.0,�L
2020/10/08,03:20,0.659,0.937,0.597,1.163,0.827,0.380,0.664,0.629,��쐼,1.9,�L
2020/10/08,03:30,0.657,0.936,0.596,1.162,0.826,0.380,0.662,0.625,��쐼,1.2,�L
2020/10/08,03:40,0.657,0.935,0.596,1.158,0.826,0.382,0.664,0.628,��쐼,1.7,�L
2020/10/08,03:50,0.659,0.933,0.596,1.161,0.824,0.380,0.663,0.627,��,2.8,�L
2020/10/08,04:00,0.656,0.931,0.595,1.158,0.824,0.381,0.664,0.624,��쓌,3.6,�L
2020/10/08,04:10,0.654,0.930,0.594,1.156,0.823,0.380,0.661,0.626,��쐼,4.4,�L
2020/10/08,04:20,0.654,0.928,0.593,1.153,0.819,0.380,0.661,0.626,��쐼,4.4,�L
2020/10/08,04:30,0.656,0.930,0.594,1.154,0.819,0.377,0.659,0.625,��,4.3,�L
2020/10/08,04:40,0.656,0.930,0.594,1.153,0.819,0.378,0.660,0.624,��쐼,3.4,�L
2020/10/08,04:50,0.656,0.930,0.595,1.154,0.821,0.379,0.659,0.625,��,2.8,�L
2020/10/08,05:00,0.654,0.928,0.595,1.155,0.818,0.379,0.661,0.625,��쐼,2.5,�L
2020/10/08,05:10,0.655,0.930,0.595,1.152,0.820,0.380,0.661,0.625,��쐼,2.5,�L
2020/10/08,05:20,0.654,0.928,0.593,1.152,0.821,0.378,0.660,0.625,��쐼,2.6,�L
2020/10/08,05:30,0.655,0.928,0.593,1.152,0.821,0.378,0.662,0.625,��,2.5,�L
2020/10/08,05:40,0.653,0.930,0.592,1.153,0.820,0.378,0.662,0.626,��,2.8,�L
2020/10/08,05:50,0.656,0.930,0.594,1.151,0.821,0.379,0.661,0.627,��,2.8,�L
2020/10/08,06:00,0.654,0.929,0.592,1.151,0.821,0.378,0.660,0.627,��쐼,2.5,�L
2020/10/08,06:10,0.653,0.928,0.590,1.148,0.820,0.378,0.662,0.625,��,0.9,�L
2020/10/08,06:20,0.652,0.926,0.593,1.149,0.820,0.379,0.660,0.625,-,CALM,�L
2020/10/08,06:30,0.653,0.926,0.592,1.149,0.819,0.378,0.660,0.625,-,CALM,�L
2020/10/08,06:40,0.652,0.926,0.592,1.148,0.820,0.379,0.661,0.626,-,CALM,�L
2020/10/08,06:50,0.652,0.926,0.591,1.146,0.818,0.377,0.659,0.626,��,1.7,�L
2020/10/08,07:00,0.651,0.923,0.591,1.141,0.817,0.377,0.659,0.624,���쐼,2.6,�L
2020/10/08,07:10,0.651,0.922,0.590,1.141,0.815,0.376,0.658,0.624,���쐼,1.4,�L
2020/10/08,07:20,0.651,0.922,0.591,1.139,0.815,0.377,0.659,0.624,���쐼,0.6,�L
2020/10/08,07:30,0.650,0.920,0.587,1.141,0.813,0.377,0.658,0.623,-,CALM,�L
2020/10/08,07:40,0.650,0.920,0.590,1.138,0.813,0.377,0.658,0.624,��,1.2,�L
2020/10/08,07:50,0.651,0.920,0.588,1.141,0.814,0.378,0.659,0.621,��,1.7,�L
2020/10/08,08:00,0.651,0.922,0.589,1.140,0.815,0.377,0.657,0.624,��,1.9,�L
2020/10/08,08:10,0.651,0.922,0.588,1.139,0.814,0.377,0.659,0.623,���k��,2.6,�L
2020/10/08,08:20,0.652,0.921,0.589,1.139,0.816,0.378,0.658,0.622,���k��,3.1,�L
2020/10/08,08:30,0.651,0.922,0.588,1.139,0.815,0.378,0.659,0.623,���k��,2.6,�L
2020/10/08,08:40,0.651,0.918,0.588,1.138,0.815,0.377,0.657,0.622,���k��,3.4,�L
2020/10/08,08:50,0.651,0.919,0.588,1.142,0.816,0.376,0.659,0.621,���k��,3.1,�L
2020/10/08,09:00,0.649,0.920,0.590,1.136,0.813,0.377,0.657,0.622,�k��,2.0,�L
2020/10/08,09:10,0.649,0.917,0.588,1.136,0.815,0.378,0.657,0.623,�k��,2.5,�L
2020/10/08,09:20,0.647,0.914,0.586,1.137,0.810,0.377,0.657,0.622,�k��,3.2,�L
2020/10/08,09:30,0.649,0.912,0.589,1.134,0.809,0.377,0.656,0.621,�k��,3.3,�L
2020/10/08,09:40,0.646,0.912,0.588,1.135,0.808,0.376,0.656,0.620,�k��,3.3,�L
2020/10/08,09:50,0.646,0.910,0.588,1.131,0.810,0.376,0.655,0.619,�k��,2.8,�L
2020/10/08,10:00,0.648,0.912,0.586,1.133,0.809,0.376,0.658,0.620,�k��,3.8,�L
2020/10/08,10:10,0.645,0.910,-,1.132,0.807,0.378,0.657,0.621,�k��,4.9,�L
2020/10/08,10:20,0.644,0.910,-,1.129,0.805,0.377,0.655,0.622,�k�k��,3.9,�L
2020/10/08,10:30,0.645,0.907,-,1.127,0.806,0.375,0.656,0.620,�k�k��,3.0,�L
2020/10/08,10:40,0.645,0.908,-,1.129,0.805,0.374,0.655,0.619,�k��,3.3,�L
2020/10/08,10:50,0.644,0.909,-,1.126,0.805,0.377,0.655,0.619,�k��,2.0,�L
2020/10/08,11:00,0.643,0.906,-,1.129,0.807,0.376,0.655,0.620,�k��,2.6,�L
2020/10/08,11:10,0.645,0.907,-,1.125,0.804,0.375,0.654,0.621,�k��,3.5,�L
2020/10/08,11:20,0.645,0.908,-,1.124,0.805,0.376,0.655,0.617,�k��,3.7,�L
2020/10/08,11:30,0.645,0.906,-,1.125,0.804,0.376,0.654,0.619,���k��,3.0,�L
2020/10/08,11:40,0.644,0.908,-,1.125,0.805,0.376,0.653,0.618,���k��,3.7,�L
2020/10/08,11:50,0.645,0.908,-,1.127,0.803,0.376,0.652,0.619,�k�k��,2.6,�L
2020/10/08,12:00,0.645,0.908,-,1.124,0.803,0.375,0.653,0.618,�k�k��,1.9,�L
2020/10/08,12:10,0.643,0.905,-,1.120,0.802,0.375,0.654,0.618,�k,2.8,�L
2020/10/08,12:20,0.643,0.903,-,1.118,0.800,0.376,0.653,0.617,�k,1.7,�L
2020/10/08,12:30,0.642,0.904,-,1.121,0.801,0.374,0.653,0.617,�k�k��,1.7,�L
2020/10/08,12:40,0.642,0.905,-,1.120,0.800,0.375,0.654,0.618,�k��,2.3,�L
2020/10/08,12:50,0.643,0.908,-,1.122,0.802,0.375,0.651,0.618,�k��,3.2,�L
2020/10/08,13:00,0.643,0.906,0.586,1.122,0.803,0.376,0.654,0.620,�k��,5.0,�L
2020/10/08,13:10,0.645,0.908,0.586,1.122,0.803,0.375,0.654,0.619,�k�k��,5.3,�L
2020/10/08,13:20,0.645,0.908,0.586,1.124,0.804,0.375,0.655,0.619,�k��,4.8,�L
2020/10/08,13:30,0.644,0.907,0.586,1.125,0.807,0.374,0.653,0.619,�k�k��,3.7,�L
2020/10/08,13:40,0.645,0.911,0.586,1.126,0.805,0.376,0.655,0.620,�k,3.5,�L
2020/10/08,13:50,0.647,0.910,0.584,1.125,0.806,0.375,0.654,0.620,�k,4.1,�L
2020/10/08,14:00,0.645,0.909,0.586,1.122,0.807,0.376,0.655,0.619,�k,4.5,�L
2020/10/08,14:10,0.646,0.911,0.585,1.124,0.803,0.376,0.654,0.620,�k,3.7,�L
2020/10/08,14:20,0.645,0.904,0.585,1.124,0.803,0.376,0.652,0.618,�k,4.0,�L
2020/10/08,14:30,0.644,0.907,0.586,1.123,0.803,0.375,0.654,0.619,�k�k��,4.5,�L
2020/10/08,14:40,0.644,0.910,0.585,1.124,0.804,0.376,0.655,0.619,�k�k��,5.2,�L
2020/10/08,14:50,0.644,0.908,0.585,1.124,0.803,0.376,0.654,0.618,�k�k��,5.5,�L
2020/10/08,15:00,0.645,0.909,0.585,1.124,0.805,0.377,0.658,0.618,�k�k��,5.5,�L
2020/10/08,15:10,0.645,0.910,0.585,1.125,0.806,0.375,0.656,0.618,�k,3.7,�L
2020/10/08,15:20,0.644,0.910,0.585,1.126,0.805,0.376,0.654,0.619,�k,4.1,�L
2020/10/08,15:30,0.646,0.910,0.585,1.124,0.803,0.375,0.655,0.620,�k�k��,4.8,�L
2020/10/08,15:40,0.646,0.910,0.585,1.124,0.805,0.374,0.654,0.620,�k�k��,5.4,�L
2020/10/08,15:50,0.644,0.910,0.585,1.123,0.802,0.376,0.653,0.620,�k�k��,5.1,�L
2020/10/08,16:00,0.643,0.911,0.585,1.123,0.805,0.376,0.655,0.621,�k�k��,4.4,�L
2020/10/08,16:10,0.645,0.913,0.584,1.124,0.805,0.377,0.654,0.619,�k�k��,3.9,�L
2020/10/08,16:20,0.644,0.912,0.586,1.122,0.804,0.376,0.653,0.621,�k,4.3,�L
2020/10/08,16:30,0.642,0.910,0.584,1.124,0.803,0.376,0.653,0.621,�k,4.0,�L
2020/10/08,16:40,0.643,0.912,0.587,1.122,0.805,0.376,0.654,0.621,�k,4.0,�L
2020/10/08,16:50,0.644,0.911,0.585,1.122,0.805,0.377,0.655,0.621,�k,4.2,�L
2020/10/08,17:00,0.643,0.912,0.584,1.122,0.806,0.376,0.654,0.620,�k�k��,5.4,�L
2020/10/08,17:10,0.643,0.912,0.585,1.123,0.807,0.376,0.652,0.622,�k��,7.1,�L
2020/10/08,17:20,0.644,0.911,0.583,1.122,0.807,0.376,0.654,0.622,�k��,6.8,�L
2020/10/08,17:30,0.642,0.912,0.584,1.124,0.806,0.376,0.654,0.620,�k��,5.3,�L
2020/10/08,17:40,0.644,0.912,0.584,1.124,0.808,0.376,0.653,0.623,�k��,4.4,�L
2020/10/08,17:50,0.642,0.910,0.585,1.125,0.807,0.375,0.653,0.621,�k��,4.8,�L
2020/10/08,18:00,0.642,0.914,0.582,1.124,0.809,0.375,0.654,0.622,�k�k��,3.2,�L
2020/10/08,18:10,0.643,0.913,0.584,1.125,0.806,0.376,0.655,0.622,�k,2.3,�L
2020/10/08,18:20,0.642,0.913,0.583,1.126,0.806,0.376,0.654,0.624,�k��,3.2,�L
2020/10/08,18:30,0.642,0.912,0.583,1.125,0.806,0.377,0.655,0.621,�k��,3.7,�L
2020/10/08,18:40,0.641,0.913,0.583,1.125,0.808,0.377,0.655,0.621,�k��,4.4,�L
2020/10/08,18:50,0.643,0.912,0.584,1.125,0.805,0.375,0.655,0.622,�k��,3.6,�L
2020/10/08,19:00,0.644,0.915,0.585,1.125,0.807,0.375,0.654,0.623,�k�k��,3.0,�L
2020/10/08,19:10,0.644,0.913,0.585,1.124,0.809,0.376,0.655,0.622,�k�k��,4.4,�L
2020/10/08,19:20,0.643,0.913,0.584,1.126,0.809,0.376,0.656,0.622,�k��,5.4,�L
2020/10/08,19:30,0.642,0.914,0.584,1.126,0.809,0.375,0.654,0.621,�k��,5.0,�L
2020/10/08,19:40,0.642,0.916,0.584,1.124,0.808,0.377,0.655,0.621,�k��,6.8,�L
2020/10/08,19:50,0.641,0.914,0.584,1.124,0.808,0.377,0.655,0.622,�k��,5.9,�L
2020/10/08,20:00,0.643,0.914,0.583,1.125,0.808,0.376,0.655,0.622,�k��,5.4,��
2020/10/08,20:10,0.642,0.914,0.585,1.127,0.808,0.376,0.655,0.621,�k��,4.7,��
2020/10/08,20:20,0.643,0.915,0.584,1.127,0.808,0.376,0.654,0.622,�k��,4.0,��
2020/10/08,20:30,0.644,0.913,0.586,1.125,0.809,0.377,0.655,0.622,�k��,5.2,��
2020/10/08,20:40,0.645,0.916,0.585,1.128,0.807,0.375,0.656,0.621,�k�k��,5.1,��
2020/10/08,20:50,0.643,0.915,0.585,1.128,0.809,0.376,0.655,0.623,�k�k��,6.1,��
2020/10/08,21:00,0.647,0.915,0.584,1.127,0.808,0.377,0.655,0.623,�k�k��,5.2,��
2020/10/08,21:10,0.644,0.914,0.585,1.127,0.810,0.376,0.655,0.622,�k�k��,6.2,��
2020/10/08,21:20,0.644,0.914,0.586,1.128,0.810,0.376,0.655,0.621,�k�k��,7.0,��
2020/10/08,21:30,0.644,0.915,0.584,1.126,0.811,0.378,0.656,0.621,�k�k��,7.2,��
2020/10/08,21:40,0.644,0.916,0.588,1.130,0.808,0.376,0.657,0.622,�k�k��,7.3,��
2020/10/08,21:50,0.644,0.917,0.584,1.128,0.808,0.376,0.655,0.623,�k�k��,7.4,��
2020/10/08,22:00,0.643,0.916,0.585,1.128,0.810,0.376,0.655,0.621,�k�k��,7.4,�L
2020/10/08,22:10,0.644,0.915,0.586,1.129,0.811,0.377,0.654,0.624,�k�k��,6.7,�L
2020/10/08,22:20,0.644,0.915,0.587,1.127,0.811,0.377,0.655,0.623,�k�k��,6.3,�L
2020/10/08,22:30,0.645,0.915,0.586,1.126,0.810,0.377,0.656,0.622,�k�k��,6.2,�L
2020/10/08,22:40,0.643,0.916,0.586,1.129,0.812,0.378,0.654,0.623,�k�k��,5.0,�L
2020/10/08,22:50,0.643,0.916,0.587,1.128,0.810,0.379,0.655,0.623,�k�k��,5.9,�L
2020/10/08,23:00,0.642,0.915,0.586,1.129,0.810,0.375,0.655,0.623,�k�k��,5.1,�L
2020/10/08,23:10,0.644,0.914,0.587,1.128,0.808,0.378,0.655,0.619,�k�k��,4.3,�L
2020/10/08,23:20,0.644,0.915,0.585,1.126,0.807,0.378,0.655,0.622,�k�k��,3.5,�L
2020/10/08,23:30,0.645,0.915,0.586,1.126,0.806,0.377,0.654,0.621,�k��,3.1,�L
2020/10/08,23:40,0.642,0.914,0.586,1.125,0.808,0.377,0.654,0.620,�k��,2.6,�L
2020/10/08,23:50,0.643,0.913,0.589,1.126,0.805,0.377,0.654,0.620,�k��,3.7,�L
